Location: Berlin
(42.3812°N, 71.6370°W)
Time: 00:02:41
(UTC+00:00)

BREEZE-M DEB (TANK) - Pass Details

Date: 15 November 2025
Orbit: 457 x 14803 km, 45.9° (Epoch: 08 December)

Event Time Altitude Azimuth Distance (km) Brightness Sun altitude
Exits shadow 10:09:51 20° 278° (W) 4,224 6.6 -16.3°
Maximum altitude 10:18:04 66° 356° (N) 1,179 4.3 -14.8°
Drops below altitude 10° 10:22:14 10° 81° (E) 2,074 6.9 -14.0°
Sets 10:23:44 0° 85° (E) 2,741 7.9 -13.8°
